Location: ????? ????
(37.9717°N, 23.4051°E)
Time: 04:31:08
(UTC+00:00)

Cosmos 2360 Rocket - Pass Details

Date: 18 April 2024
Orbit: 832 x 846 km, 71.0° (Epoch: 23 May)

Event Time Altitude Azimuth Distance (km) Brightness Sun altitude
Exits shadow 22:51:10 23° 8° (N) 1,729 4.3 -40.4°
Drops below altitude 10° 22:53:12 10° 15° (NNE) 2,456 5.3 -40.3°
Sets 22:55:42 0° 19° (NNE) 3,396 6.2 -40.3°
